Location: Cogollal
(10.0582°N, 67.8466°W)
Time: 20:23:48
(UTC+00:00)

Cosmos 1624 Rocket - Pass Details

Date: 14 April 2024
Orbit: 755 x 781 km, 74.0° (Epoch: 18 May)

Event Time Altitude Azimuth Distance (km) Brightness Sun altitude
Rises 09:18:33 0° 344° (NNW) 3,205 7.2 -16.0°
Reaches altitude 10° 09:20:55 10° 343° (NNW) 2,278 6.4 -15.4°
Maximum altitude 09:26:04 75° 258° (WSW) 780 3.9 -14.1°
Drops below altitude 10° 09:31:13 10° 173° (S) 2,274 6.4 -12.9°
Sets 09:33:35 0° 171° (S) 3,200 7.2 -12.3°
